QPF
0.00 0.00 0.00 0.00 0.00 0.00 0.00 0.00 0.00 0.00 0.00 0.00 0.00 0.00 0.00 0.00 0.00 0.00 0.00 0.00 0.00 0.00 0.00 0.00 0.00 0.00 0.00 0.00 0.00 0.00 0.00 0.00 0.00 0.00 0.00 0.00 0.00 0.00 0.00 0.00 0.00 0.00 0.00 0.00
0.00 0.00 0.00 0.00 0.00 0.00 0.00 0.00 0.00 0.00 0.00 0.00 0.00 0.00 0.00 0.00 0.00 0.00 0.00 0.00 0.00 0.00 0.00 0.00 0.00 0.00 0.00 0.00 0.00 0.00 0.00 0.00 0.00 0.00 0.00 0.00 0.00 0.00 0.00 0.00 0.00 0.00 0.00 0.00
0.00 0.00 0.00 0.00 0.00 0.00 0.00 0.00 0.00 0.00 0.00 0.00 0.00 0.00 0.00 0.00 0.00 0.00 0.00 0.00 0.00 0.00 0.00 0.00 0.00 0.00 0.00 0.00 0.00 0.00 0.00 0.00 0.00 0.00 0.00 0.00 0.00 0.00 0.00 0.00 0.00 0.00 0.00 0.00
0.00 0.00 0.00 0.00 0.00 0.00 0.00 0.00 0.00 0.00 0.00 0.00 0.00 0.00 0.00 0.00 0.00 0.00 0.00 0.00 0.00 0.00 0.00 0.00 0.00 0.00 0.00 0.00 0.00 0.00 0.00 0.00 0.00 0.00 0.00 0.00 0.00 0.00 0.00 0.00 0.00 0.00 0.00 0.00
0.00 0.00 0.00 0.00 0.00 0.00 0.00 0.00 0.00 0.00 0.00 0.00 0.00 0.00 0.00 0.00 0.00 0.00 0.00 0.00 0.00 0.00 0.00 0.00 0.00 0.00 0.00 0.00 0.00 0.00 0.00 0.00 0.00 0.00 0.00 0.00 0.00 0.00 0.00 0.00 0.00 0.00 0.00 0.00
0.00 0.00 0.00 0.00 0.00 0.00 0.00 0.00 0.00 0.00 0.00 0.00 0.00 0.00 0.00 0.00 0.00 0.00 0.00 0.00 0.00 0.00 0.00 0.00 0.00 0.00 0.00 0.00 0.00 0.00 0.00 0.00 0.00 0.00 0.00 0.00 0.00 0.00 0.00 0.00 0.00 0.00 0.00 0.00
0.00 0.00 0.00 0.00 0.00 0.00 0.00 0.00 0.00 0.00 0.00 0.00 0.00 0.00 0.00 0.00 0.00 0.00 0.00 0.00 0.00 0.00 0.00 0.00 0.00 0.00 0.00 0.00 0.00 0.00 0.00 0.00 0.00 0.00 0.00 0.00 0.00 0.00 0.00 0.00 0.00 0.00 0.00 0.00
0.00 0.00 0.00 0.00 0.00 0.00 0.00 0.00 0.00 0.00 0.00 0.00 0.00 0.00 0.00 0.00 0.00 0.00 0.00 0.00 0.00 0.00 0.00 0.00 0.00 0.00 0.00 0.00 0.00 0.00 0.00 0.00 0.00 0.00 0.00 0.00 0.00 0.00 0.00 0.00 0.00 0.00 0.00 0.00
0.00 0.00 0.00 0.00 0.00 0.00 0.00 0.00 0.00 0.00 0.00 0.00 0.00 0.00 0.00 0.00 0.00 0.00 0.00 0.00 0.00 0.00 0.00 0.00 0.00 0.00 0.00 0.00 0.00 0.00 0.00 0.00 0.00 0.00 0.00 0.00 0.00 0.00 0.00 0.00 0.00 0.00 0.00 0.00
0.00 0.00 0.00 0.00 0.00 0.00 0.00 0.00 0.00 0.00 0.00 0.00 0.00 0.00 0.00 0.00 0.00 0.00 0.00 0.00 0.00 0.00 0.00 0.00 0.00 0.00 0.00 0.00 0.00 0.00 0.00 0.00 0.00 0.00 0.00 0.00 0.00 0.00 0.00 0.00 0.00 0.00 0.00 0.00
0.00 0.00 0.00 0.00 0.00 0.00 0.00 0.00 0.00 0.00 0.00 0.00 0.00 0.00 0.00 0.00 0.00 0.00 0.00 0.00 0.00 0.00 0.00 0.00 0.00 0.00 0.00 0.00 0.00 0.00 0.00 0.00 0.00 0.00 0.00 0.00 0.00 0.00 0.00 0.00 0.00 0.00 0.00 0.00
0.00 0.01 0.00 0.00 0.00 0.00 0.00 0.00 0.00 0.00 0.00 0.00 0.00 0.00 0.00 0.00 0.00 0.00 0.00 0.00 0.00 0.00 0.00 0.00 0.00 0.00 0.00 0.00 0.00 0.00 0.00 0.00 0.00 0.00 0.00 0.00 0.00 0.00 0.00 0.00 0.00 0.00 0.00 0.00
0.03 0.02 0.01 0.00 0.00 0.00 0.00 0.00 0.00 0.00 0.00 0.00 0.00 0.00 0.00 0.00 0.00 0.00 0.00 0.00 0.00 0.00 0.00 0.00 0.00 0.00 0.00 0.00 0.00 0.00 0.00 0.00 0.00 0.00 0.00 0.00 0.00 0.00 0.00 0.00 0.00 0.00 0.00 0.00
0.00 0.00 0.00 0.00 0.00 0.00 0.00 0.00 0.00 0.00 0.00 0.00 0.00 0.00 0.00 0.00 0.00 0.00 0.00 0.00 0.00 0.00 0.00 0.00 0.00 0.00 0.00 0.00 0.00 0.00 0.00 0.00 0.00 0.00 0.00 0.00 0.00 0.00 0.00 0.00 0.00 0.00 0.00 0.00
0.00 0.00 0.00 0.00 0.00 0.00 0.00 0.00 0.00 0.00 0.00 0.00 0.00 0.00 0.00 0.00 0.00 0.00 0.00 0.00 0.00 0.00 0.00 0.00 0.00 0.00 0.00 0.00 0.00 0.00 0.00 0.00 0.00 0.00 0.00 0.00 0.00 0.00 0.00 0.00 0.00 0.00 0.00 0.00
0.00 0.00 0.00 0.00 0.00 0.00 0.00 0.00 0.00 0.00 0.00 0.00 0.00 0.00 0.00 0.00 0.00 0.00 0.00 0.00 0.00 0.00 0.00 0.00 0.00 0.00 0.00 0.00 0.00 0.00 0.00 0.00 0.00 0.00 0.00 0.00 0.00 0.00 0.00 0.00 0.00 0.00 0.00 0.00
0.00 0.00 0.00 0.00 0.00 0.00 0.01 0.00 0.00 0.00 0.00 0.00 0.00 0.00 0.00 0.00 0.00 0.00 0.00 0.00 0.00 0.00 0.00 0.00 0.00 0.00 0.00 0.00 0.00 0.00 0.00 0.00 0.00 0.00 0.00 0.00 0.00 0.00 0.00 0.00 0.00 0.00 0.00 0.00
0.00 0.00 0.00 0.00 0.00 0.00 0.00 0.00 0.00 0.00 0.00 0.00 0.00 0.00 0.00 0.00 0.00 0.00 0.00 0.00 0.00 0.00 0.00 0.00 0.00 0.00 0.00 0.00 0.00 0.00 0.00 0.00 0.00 0.00 0.00 0.00 0.00 0.00 0.00 0.00 0.00 0.00 0.00 0.00
0.00 0.00 0.00 0.00 0.00 0.00 0.00 0.00 0.00 0.00 0.00 0.00 0.00 0.00 0.00 0.00 0.00 0.00 0.00 0.00 0.00 0.00 0.00 0.00 0.00 0.00 0.00 0.00 0.00 0.00 0.00 0.00 0.00 0.00 0.00 0.00 0.00 0.00 0.00 0.00 0.00 0.00 0.00 0.00
0.00 0.00 0.00 0.00 0.00 0.00 0.00 0.00 0.00 0.00 0.00 0.00 0.00 0.00 0.00 0.00 0.00 0.00 0.00 0.00 0.00 0.00 0.00 0.00 0.00 0.00 0.00 0.00 0.00 0.00 0.00 0.00 0.00 0.00 0.00 0.00 0.00 0.00 0.00 0.00 0.00 0.00 0.00 0.00
0.00 0.00 0.00 0.00 0.00 0.00 0.00 0.00 0.00 0.00 0.00 0.00 0.00 0.00 0.00 0.00 0.00 0.00 0.00 0.00 0.00 0.00 0.00 0.00 0.00 0.00 0.00 0.00 0.00 0.00 0.00 0.00 0.00 0.00 0.00 0.00 0.00 0.00 0.00 0.00 0.00 0.00 0.00 0.00
0.00 0.00 0.00 0.00 0.00 0.00 0.00 0.00 0.00 0.00 0.00 0.00 0.00 0.00 0.00 0.00 0.00 0.00 0.00 0.00 0.00 0.00 0.00 0.00 0.00 0.00 0.00 0.00 0.00 0.00 0.00 0.00 0.00 0.00 0.00 0.00 0.00 0.00 0.00 0.00 0.00 0.00 0.00 0.00
0.00 0.00 0.00 0.00 0.00 0.00 0.00 0.00 0.00 0.00 0.00 0.00 0.00 0.00 0.00 0.00 0.00 0.00 0.00 0.00 0.00 0.00 0.00 0.00 0.00 0.00 0.00 0.00 0.00 0.00 0.00 0.00 0.00 0.00 0.00 0.00 0.00 0.00 0.00 0.00 0.00 0.00 0.00 0.00
0.00 0.00 0.00 0.00 0.00 0.00 0.00 0.00 0.00 0.00 0.00 0.00 0.00 0.00 0.00 0.00 0.00 0.00 0.00 0.00 0.00 0.00 0.00 0.00 0.00 0.00 0.00 0.00 0.00 0.00 0.00 0.00 0.00 0.00 0.00 0.00 0.00 0.00 0.00 0.00 0.00 0.00 0.00 0.00
0.00 0.00 0.00 0.00 0.00 0.00 0.00 0.00 0.00 0.00 0.00 0.00 0.00 0.00 0.00 0.00 0.00 0.00 0.00 0.00 0.00 0.00 0.00 0.00 0.00 0.00 0.00 0.00 0.00 0.00 0.00 0.00 0.00 0.00 0.00 0.00 0.00 0.00 0.00 0.00 0.00 0.00 0.00 0.00
0.00 0.00 0.00 0.00 0.00 0.00 0.00 0.00 0.00 0.00 0.00 0.00 0.00 0.00 0.00 0.00 0.00 0.00 0.00 0.00 0.00 0.00 0.00 0.00 0.00 0.00 0.00 0.00 0.00 0.00 0.00 0.00 0.00 0.00 0.00 0.00 0.00 0.00 0.00 0.00 0.00 0.00 0.00 0.00
MSLP
1013.72 1013.66 1012.45 1012.87 1012.91 1012.73 1012.89 1013.04 1013.14 1012.92 1012.46 1012.78 1012.70 1012.16 1011.07 1010.60 1010.92 1010.58 1010.02 1010.00 1009.65 1009.10 1008.68 1009.06 1009.47 1010.12 1010.87 1011.56 1012.25 1012.96 1013.84 1014.72 1015.59 1016.69 1017.60 1018.19 1018.50 1018.86 1019.17 1019.19 1019.26 1019.41 1019.54 1019.58
1013.98 1011.73 1012.40 1012.76 1012.93 1012.89 1012.88 1012.95 1012.82 1012.56 1012.38 1012.72 1012.34 1011.79 1010.48 1010.10 1009.63 1009.33 1008.84 1008.53 1008.33 1008.13 1008.12 1008.37 1008.81 1009.48 1010.00 1010.73 1011.55 1012.38 1013.12 1014.15 1014.95 1015.66 1016.53 1017.18 1018.00 1018.71 1018.86 1019.00 1019.19 1019.32 1019.44 1019.46
1011.79 1011.60 1012.12 1012.22 1012.51 1012.67 1012.22 1012.15 1012.42 1012.34 1012.49 1012.62 1012.58 1011.50 1010.01 1008.61 1008.27 1007.71 1007.61 1007.14 1006.95 1006.97 1007.23 1007.66 1008.36 1008.79 1009.29 1009.86 1010.69 1011.61 1012.44 1013.36 1014.32 1015.22 1016.18 1017.10 1017.84 1018.56 1018.94 1019.17 1019.27 1019.35 1019.37 1019.44
1012.22 1011.30 1011.49 1011.53 1011.38 1011.81 1012.02 1011.95 1012.52 1012.76 1013.05 1013.44 1012.90 1011.50 1009.74 1008.27 1007.55 1006.85 1006.26 1006.18 1005.81 1005.62 1006.21 1006.76 1007.45 1008.11 1008.51 1009.03 1009.94 1010.85 1011.77 1012.81 1013.86 1014.83 1015.83 1016.36 1016.93 1017.91 1018.26 1018.67 1019.12 1019.49 1019.58 1019.61
1009.98 1010.37 1011.07 1011.20 1010.15 1011.32 1011.25 1011.60 1012.40 1013.16 1013.68 1013.79 1013.31 1013.07 1008.52 1007.98 1007.13 1005.82 1004.74 1004.60 1004.81 1004.86 1005.52 1005.94 1006.23 1006.70 1007.49 1008.40 1009.17 1010.24 1011.31 1012.35 1013.33 1014.11 1014.92 1015.91 1016.78 1017.40 1017.93 1018.54 1019.14 1019.55 1019.61 1019.60
1009.89 1009.59 1009.41 1008.77 1010.05 1010.64 1011.24 1012.26 1013.25 1013.95 1014.56 1014.36 1012.42 1012.27 1007.70 1006.84 1005.45 1004.41 1003.51 1003.68 1003.99 1004.42 1004.74 1005.28 1005.88 1006.53 1007.33 1008.17 1008.98 1009.90 1010.93 1011.92 1012.89 1013.77 1014.62 1015.34 1016.19 1017.06 1017.87 1018.59 1019.16 1019.60 1019.79 1019.82
1009.77 1009.69 1009.04 1008.74 1009.88 1010.73 1010.74 1011.87 1013.92 1015.11 1015.43 1013.36 1012.31 1011.73 1006.41 1004.90 1004.13 1003.37 1003.08 1003.48 1003.71 1004.09 1004.45 1005.14 1005.66 1006.28 1006.97 1007.75 1008.54 1009.55 1010.50 1011.58 1012.48 1013.41 1014.30 1015.06 1015.83 1016.58 1017.35 1018.11 1018.75 1019.44 1019.70 1019.76
1008.83 1009.43 1008.20 1007.87 1007.94 1008.93 1010.31 1010.65 1011.84 1013.37 1013.92 1013.40 1012.67 1009.90 1005.20 1003.73 1002.48 1002.75 1002.81 1003.24 1003.53 1003.93 1004.34 1004.88 1005.45 1005.89 1006.46 1007.19 1008.03 1008.88 1009.91 1011.10 1012.03 1012.97 1013.90 1014.76 1015.57 1016.36 1017.06 1017.68 1018.36 1018.89 1019.26 1019.40
1008.08 1007.69 1006.83 1007.04 1007.22 1007.66 1009.66 1009.82 1010.18 1011.99 1013.33 1013.16 1011.11 1008.01 1005.17 1003.37 1002.45 1002.23 1002.61 1003.06 1003.40 1003.82 1004.32 1004.82 1005.47 1005.94 1006.49 1007.20 1007.89 1008.59 1009.64 1010.81 1011.72 1012.62 1013.57 1014.49 1015.31 1016.09 1016.80 1017.39 1017.95 1018.49 1018.97 1019.17
1007.57 1007.42 1006.81 1006.97 1007.01 1007.39 1007.06 1007.87 1009.63 1010.98 1012.29 1012.15 1009.93 1008.07 1005.14 1003.07 1002.17 1002.13 1002.47 1002.74 1003.13 1003.73 1004.44 1005.02 1005.66 1006.24 1006.65 1007.24 1008.04 1008.89 1009.76 1010.51 1011.40 1012.33 1013.21 1014.06 1014.92 1015.67 1016.32 1017.01 1017.64 1018.06 1018.51 1018.94
1007.92 1007.68 1007.48 1006.92 1006.01 1005.14 1006.68 1007.02 1007.71 1008.49 1009.82 1009.81 1009.36 1005.94 1003.54 1002.19 1001.69 1001.99 1002.11 1002.41 1002.89 1003.71 1004.47 1005.22 1005.95 1006.56 1006.94 1007.46 1008.18 1008.90 1009.65 1010.43 1011.32 1012.12 1012.92 1013.83 1014.70 1015.44 1016.14 1016.68 1017.25 1017.75 1018.25 1018.67
1007.47 1007.81 1007.90 1006.78 1005.77 1005.28 1005.21 1005.53 1006.33 1007.46 1008.75 1008.60 1007.84 1005.05 1002.84 1002.57 1002.32 1002.18 1002.19 1002.78 1003.47 1004.21 1004.92 1005.66 1006.35 1007.00 1007.45 1007.96 1008.58 1009.09 1009.85 1010.59 1011.25 1011.85 1012.60 1013.46 1014.32 1015.12 1015.90 1016.45 1016.97 1017.55 1018.07 1018.52
1007.17 1006.99 1007.88 1007.57 1006.89 1005.91 1005.07 1004.93 1005.10 1005.61 1006.27 1007.08 1006.73 1004.29 1002.97 1002.74 1002.73 1002.79 1002.91 1003.54 1004.18 1004.93 1005.40 1005.98 1006.70 1007.33 1007.81 1008.35 1008.80 1009.36 1009.89 1010.48 1011.17 1011.85 1012.52 1013.32 1014.05 1014.86 1015.63 1016.24 1016.80 1017.48 1018.05 1018.45
1007.86 1007.44 1006.80 1005.89 1004.94 1005.53 1005.24 1004.78 1004.67 1005.07 1005.78 1004.70 1004.68 1004.35 1003.65 1003.49 1003.60 1003.88 1004.23 1004.62 1004.87 1005.63 1006.19 1006.43 1006.99 1007.65 1008.20 1008.62 1009.03 1009.47 1009.97 1010.52 1011.13 1011.84 1012.56 1013.20 1013.81 1014.51 1015.26 1015.93 1016.60 1017.29 1017.94 1018.44
1009.39 1009.31 1008.30 1006.86 1006.26 1005.44 1005.30 1005.15 1005.05 1005.04 1003.92 1004.98 1003.96 1004.67 1003.72 1004.06 1004.02 1004.49 1004.80 1005.29 1005.55 1006.05 1006.59 1007.00 1007.30 1007.78 1008.31 1008.89 1009.30 1009.68 1010.07 1010.53 1011.05 1011.80 1012.47 1013.06 1013.65 1014.27 1015.09 1015.86 1016.49 1017.18 1017.77 1018.26
1010.56 1010.35 1010.04 1008.02 1007.81 1006.97 1006.40 1005.34 1005.17 1004.90 1004.42 1004.64 1004.60 1004.55 1004.07 1004.28 1004.28 1004.75 1004.99 1005.67 1005.95 1005.96 1006.20 1006.75 1007.25 1007.75 1008.29 1008.76 1009.18 1009.53 1009.96 1010.49 1011.02 1011.65 1012.20 1012.72 1013.47 1014.30 1015.06 1015.72 1016.43 1017.05 1017.68 1018.20
1011.05 1011.25 1011.22 1010.49 1009.68 1008.57 1007.51 1006.11 1005.13 1004.17 1004.12 1003.66 1004.19 1004.06 1003.96 1004.38 1004.87 1005.01 1005.26 1005.59 1005.77 1005.68 1005.93 1006.42 1006.84 1007.29 1007.81 1008.36 1008.91 1009.35 1009.68 1010.14 1010.88 1011.55 1012.14 1012.73 1013.32 1014.06 1014.84 1015.54 1016.28 1016.96 1017.56 1018.12
1010.53 1010.67 1011.66 1012.06 1010.77 1009.25 1007.58 1006.55 1005.87 1004.38 1003.35 1003.66 1003.55 1003.64 1003.67 1003.94 1004.43 1004.81 1004.77 1004.98 1005.38 1005.52 1005.81 1005.81 1006.22 1007.06 1007.53 1008.04 1008.67 1009.26 1009.73 1010.11 1010.61 1011.17 1011.96 1012.71 1013.23 1013.91 1014.61 1015.38 1016.02 1016.69 1017.28 1017.86
1010.86 1010.92 1011.94 1012.49 1012.06 1010.21 1007.26 1006.71 1006.07 1005.33 1003.39 1003.25 1003.51 1003.77 1003.76 1003.80 1004.40 1004.71 1004.72 1004.65 1005.06 1005.48 1005.67 1005.90 1005.98 1006.39 1006.90 1007.63 1008.20 1009.02 1009.72 1010.09 1010.53 1010.97 1011.36 1011.91 1012.54 1013.45 1014.32 1015.13 1015.85 1016.42 1016.99 1017.63
1011.15 1011.43 1011.83 1012.47 1011.74 1010.46 1008.32 1007.20 1006.90 1006.14 1004.14 1003.48 1003.08 1003.23 1003.65 1004.01 1004.23 1004.12 1004.87 1005.03 1005.45 1005.66 1005.97 1006.31 1006.35 1006.50 1006.87 1007.47 1007.96 1008.78 1009.47 1009.94 1010.19 1010.43 1010.81 1011.38 1012.02 1012.89 1013.79 1014.56 1015.43 1016.13 1016.68 1017.18
1011.96 1012.08 1011.87 1011.85 1011.44 1009.88 1008.10 1007.03 1006.89 1006.79 1005.30 1003.65 1002.93 1003.02 1003.41 1003.93 1003.90 1004.19 1004.47 1004.98 1005.45 1005.74 1005.98 1006.35 1006.39 1006.61 1006.97 1007.36 1007.92 1008.57 1008.96 1008.74 1009.11 1009.91 1010.48 1011.04 1011.58 1012.21 1013.02 1014.07 1015.07 1015.74 1016.57 1017.18
1011.31 1011.37 1011.47 1011.51 1010.67 1009.03 1006.76 1006.86 1007.03 1006.00 1005.20 1004.63 1003.93 1003.98 1004.11 1004.18 1004.23 1004.27 1004.45 1004.62 1004.84 1005.19 1005.41 1006.05 1006.58 1007.01 1007.18 1007.51 1007.94 1008.40 1008.52 1008.32 1008.93 1009.62 1010.23 1010.78 1011.36 1011.99 1012.81 1013.69 1014.74 1015.50 1016.38 1017.13
1011.38 1010.06 1009.97 1009.55 1008.31 1006.59 1006.04 1005.36 1005.03 1005.03 1005.16 1005.42 1005.41 1005.62 1005.21 1004.66 1004.61 1004.79 1004.95 1004.89 1005.20 1005.67 1006.04 1006.52 1006.89 1007.39 1007.63 1007.51 1007.81 1008.08 1007.51 1007.97 1008.73 1009.56 1010.05 1010.53 1011.24 1011.83 1012.38 1013.32 1014.37 1015.32 1015.96 1016.74
1009.33 1008.74 1009.07 1008.79 1007.63 1006.48 1005.95 1005.29 1004.92 1005.02 1005.14 1004.79 1005.00 1005.37 1005.42 1005.32 1005.10 1005.21 1005.33 1005.32 1005.43 1005.66 1005.97 1006.44 1006.82 1007.18 1007.54 1008.03 1007.97 1007.28 1007.28 1007.70 1008.41 1009.17 1009.81 1010.26 1010.77 1011.48 1012.13 1012.78 1013.56 1014.35 1015.20 1016.10
1008.42 1008.06 1007.69 1007.35 1006.85 1006.01 1005.48 1005.07 1004.76 1004.68 1004.69 1005.06 1004.79 1005.18 1005.46 1005.39 1005.32 1005.11 1005.36 1005.60 1005.56 1005.70 1006.14 1006.39 1006.68 1006.71 1006.66 1006.95 1007.08 1007.27 1007.65 1007.77 1008.15 1008.72 1009.35 1009.95 1010.37 1010.92 1011.64 1012.15 1012.59 1013.29 1013.92 1014.42
1007.32 1007.28 1007.64 1006.43 1005.24 1004.84 1004.38 1004.12 1004.06 1004.41 1004.34 1004.59 1005.02 1004.80 1004.78 1005.33 1005.28 1005.34 1005.63 1005.63 1005.83 1005.81 1005.84 1006.45 1006.35 1006.75 1006.51 1006.95 1006.97 1007.03 1007.38 1007.67 1007.84 1008.32 1008.97 1009.46 1010.00 1010.62 1011.20 1011.96 1012.74 1013.14 1013.54 1014.03
Thickness
5552 5550 5565 5582 5586 5592 5591 5589 5595 5601 5612 5611 5610 5622 5648 5651 5656 5662 5675 5678 5684 5697 5704 5704 5705 5704 5702 5700 5696 5692 5688 5682 5677 5670 5664 5660 5659 5655 5653 5652 5648 5645 5641 5638
5534 5557 5571 5570 5571 5576 5579 5582 5587 5596 5602 5601 5609 5616 5642 5647 5658 5665 5679 5686 5692 5700 5702 5705 5702 5704 5704 5700 5697 5692 5688 5681 5677 5674 5667 5663 5658 5653 5652 5649 5646 5642 5639 5636
5553 5561 5562 5567 5562 5571 5579 5584 5584 5595 5593 5592 5595 5603 5633 5654 5657 5673 5678 5691 5700 5705 5707 5704 5700 5701 5703 5702 5698 5692 5688 5682 5677 5673 5666 5659 5654 5650 5647 5644 5641 5638 5636 5634
5529 5551 5555 5552 5567 5569 5569 5576 5576 5579 5578 5572 5585 5587 5623 5647 5654 5668 5679 5684 5698 5708 5706 5704 5702 5700 5704 5703 5697 5692 5687 5681 5675 5669 5664 5661 5658 5650 5648 5643 5639 5634 5631 5629
5534 5530 5532 5543 5571 5563 5570 5569 5565 5561 5560 5562 5572 5564 5625 5635 5648 5670 5691 5695 5693 5699 5697 5701 5705 5709 5705 5699 5696 5690 5683 5678 5673 5670 5665 5658 5651 5649 5644 5639 5634 5629 5627 5625
5520 5526 5546 5566 5559 5559 5550 5550 5545 5537 5539 5511 5579 5575 5616 5642 5663 5675 5686 5688 5692 5694 5693 5695 5696 5698 5698 5693 5690 5685 5679 5675 5669 5665 5660 5656 5651 5645 5639 5634 5629 5624 5622 5621
5491 5498 5525 5540 5537 5535 5545 5541 5466 5502 5474 5554 5549 5561 5638 5652 5662 5672 5680 5681 5686 5688 5689 5683 5685 5690 5691 5689 5684 5679 5675 5670 5665 5660 5655 5650 5646 5643 5638 5632 5628 5622 5619 5617
5490 5481 5510 5524 5541 5534 5523 5540 5509 5500 5493 5545 5537 5575 5625 5649 5672 5669 5669 5668 5673 5679 5678 5675 5677 5684 5685 5683 5678 5675 5671 5664 5660 5655 5649 5645 5641 5637 5634 5630 5625 5621 5617 5615
5479 5496 5514 5517 5531 5543 5517 5531 5546 5501 5444 5511 5552 5584 5623 5640 5654 5656 5657 5659 5663 5669 5670 5668 5668 5672 5675 5674 5671 5669 5665 5657 5654 5650 5644 5640 5636 5632 5629 5627 5623 5619 5615 5612
5472 5468 5495 5505 5518 5520 5538 5549 5533 5500 5485 5511 5549 5563 5614 5640 5649 5651 5655 5653 5656 5662 5657 5655 5655 5659 5662 5664 5660 5657 5655 5651 5647 5643 5639 5636 5632 5629 5627 5624 5619 5617 5614 5610
5453 5456 5469 5484 5495 5529 5514 5526 5531 5530 5525 5531 5516 5585 5609 5644 5649 5648 5650 5649 5652 5652 5646 5644 5643 5647 5649 5652 5649 5647 5645 5643 5640 5637 5634 5630 5626 5623 5621 5619 5616 5613 5610 5608
5441 5441 5421 5466 5495 5514 5520 5533 5532 5542 5523 5499 5525 5571 5615 5620 5627 5639 5649 5645 5643 5639 5633 5630 5629 5631 5635 5636 5635 5636 5635 5634 5632 5630 5628 5626 5622 5619 5615 5613 5611 5609 5606 5603
5444 5431 5401 5425 5463 5483 5508 5518 5545 5531 5537 5527 5552 5590 5605 5613 5614 5618 5636 5623 5620 5619 5619 5618 5617 5617 5620 5623 5623 5623 5624 5624 5622 5622 5622 5619 5616 5613 5609 5608 5606 5603 5600 5598
5407 5427 5452 5468 5492 5480 5472 5512 5527 5533 5505 5563 5567 5576 5600 5601 5603 5599 5600 5601 5603 5603 5605 5607 5608 5607 5606 5608 5610 5613 5614 5615 5615 5614 5613 5611 5610 5608 5605 5603 5601 5598 5595 5592
5384 5384 5394 5450 5462 5482 5485 5492 5497 5514 5550 5519 5568 5535 5580 5584 5597 5594 5591 5590 5592 5588 5598 5597 5598 5599 5599 5599 5600 5602 5604 5605 5607 5606 5605 5604 5603 5602 5599 5597 5595 5592 5590 5588
5365 5374 5371 5420 5423 5432 5444 5478 5485 5491 5527 5531 5510 5527 5562 5567 5575 5578 5580 5583 5584 5592 5594 5596 5592 5591 5593 5593 5594 5597 5598 5599 5600 5600 5600 5600 5597 5595 5593 5591 5589 5587 5585 5583
5357 5352 5355 5365 5382 5396 5427 5445 5474 5501 5502 5528 5497 5543 5548 5560 5560 5564 5568 5578 5582 5590 5593 5590 5590 5591 5591 5590 5590 5591 5593 5594 5593 5593 5592 5592 5593 5592 5588 5585 5584 5581 5579 5577
5351 5356 5346 5339 5368 5396 5409 5429 5436 5481 5510 5514 5520 5529 5546 5548 5552 5551 5557 5568 5575 5582 5584 5588 5589 5585 5585 5586 5584 5584 5585 5587 5588 5588 5586 5584 5586 5584 5582 5581 5579 5576 5575 5573
5342 5341 5331 5318 5332 5376 5417 5417 5439 5448 5488 5503 5505 5511 5524 5536 5531 5536 5542 5553 5561 5565 5570 5575 5580 5583 5582 5582 5583 5581 5578 5581 5582 5584 5586 5585 5585 5581 5577 5576 5572 5571 5570 5568
5332 5334 5324 5314 5324 5335 5394 5410 5418 5434 5452 5483 5497 5502 5515 5511 5509 5537 5523 5530 5538 5546 5549 5555 5562 5568 5572 5574 5576 5576 5575 5576 5579 5582 5583 5582 5581 5578 5575 5572 5568 5565 5566 5565
5313 5304 5311 5313 5316 5338 5385 5406 5406 5409 5437 5462 5481 5488 5481 5489 5509 5512 5513 5518 5522 5533 5540 5541 5548 5557 5562 5565 5567 5567 5569 5578 5581 5577 5576 5577 5578 5577 5573 5568 5562 5561 5559 5557
5303 5304 5301 5294 5297 5314 5393 5398 5396 5412 5424 5435 5453 5462 5465 5473 5480 5492 5502 5508 5512 5518 5530 5535 5537 5541 5546 5551 5556 5557 5562 5571 5571 5571 5571 5571 5571 5571 5568 5564 5558 5556 5552 5550
5280 5309 5313 5321 5330 5371 5375 5389 5401 5404 5417 5414 5422 5430 5441 5452 5461 5469 5475 5490 5496 5503 5509 5513 5521 5525 5528 5536 5544 5548 5560 5561 5559 5560 5563 5564 5563 5563 5562 5558 5553 5549 5547 5546
5295 5317 5301 5298 5329 5346 5361 5373 5382 5391 5396 5410 5411 5411 5417 5430 5442 5449 5455 5466 5478 5486 5493 5497 5502 5509 5515 5517 5527 5542 5547 5550 5552 5553 5554 5556 5559 5557 5556 5555 5552 5550 5547 5542
5290 5293 5295 5298 5311 5327 5340 5354 5368 5381 5390 5390 5399 5402 5407 5412 5421 5432 5435 5440 5453 5467 5469 5478 5488 5497 5509 5512 5521 5527 5532 5538 5542 5544 5545 5547 5551 5551 5551 5551 5551 5549 5548 5547
5292 5296 5269 5291 5321 5325 5337 5349 5361 5366 5374 5382 5379 5384 5391 5390 5400 5405 5409 5420 5430 5446 5455 5462 5472 5479 5495 5499 5508 5513 5521 5526 5531 5534 5534 5537 5541 5542 5543 5541 5538 5539 5540 5540